Year,Month,Day,Hour,Minute,Value (Times are PST for temperature in C)
2016,09,30,00,00,7.80
2016,09,30,00,01,7.80
2016,09,30,00,02,7.70
2016,09,30,00,03,7.70
2016,09,30,00,04,7.70
2016,09,30,00,05,7.70
2016,09,30,00,06,7.60
2016,09,30,00,07,7.60
2016,09,30,00,08,7.60
2016,09,30,00,09,7.60
2016,09,30,00,10,7.60
2016,09,30,00,11,7.50
2016,09,30,00,12,7.50
2016,09,30,00,13,7.50
2016,09,30,00,14,7.50
2016,09,30,00,15,7.40
2016,09,30,00,16,7.40
2016,09,30,00,17,7.40
2016,09,30,00,18,7.40
2016,09,30,00,19,7.40
2016,09,30,00,20,7.40
2016,09,30,00,21,7.40
2016,09,30,00,22,7.40
2016,09,30,00,23,7.40
2016,09,30,00,24,7.40
2016,09,30,00,25,7.40
2016,09,30,00,26,7.40
2016,09,30,00,27,7.40
2016,09,30,00,28,7.30
2016,09,30,00,29,7.30
2016,09,30,00,30,7.30
2016,09,30,00,31,7.30
2016,09,30,00,32,7.30
2016,09,30,00,33,7.30
2016,09,30,00,34,7.30
2016,09,30,00,35,7.30
2016,09,30,00,36,7.30
2016,09,30,00,37,7.20
2016,09,30,00,38,7.20
2016,09,30,00,39,7.20
2016,09,30,00,40,7.20
2016,09,30,00,41,7.20
2016,09,30,00,42,7.20
2016,09,30,00,43,7.20
2016,09,30,00,44,7.10
2016,09,30,00,45,7.10
2016,09,30,00,46,7.10
2016,09,30,00,47,7.10
2016,09,30,00,48,7.00
2016,09,30,00,49,7.00
2016,09,30,00,50,7.00
2016,09,30,00,51,7.00
2016,09,30,00,52,6.90
2016,09,30,00,53,6.90
2016,09,30,00,54,6.90
2016,09,30,00,55,6.90
2016,09,30,00,56,6.90
2016,09,30,00,57,6.90
2016,09,30,00,58,6.90
2016,09,30,00,59,6.90
2016,09,30,01,00,6.90
2016,09,30,01,01,6.90
2016,09,30,01,02,6.90
2016,09,30,01,03,6.90
2016,09,30,01,04,6.90
2016,09,30,01,05,6.90
2016,09,30,01,06,6.90
2016,09,30,01,07,6.90
2016,09,30,01,08,6.90
2016,09,30,01,09,6.90
2016,09,30,01,10,6.90
2016,09,30,01,11,6.90
2016,09,30,01,12,6.90
2016,09,30,01,13,6.90
2016,09,30,01,14,6.90
2016,09,30,01,15,6.80
2016,09,30,01,16,6.80
2016,09,30,01,17,6.80
2016,09,30,01,18,6.80
2016,09,30,01,19,6.80
2016,09,30,01,20,6.80
2016,09,30,01,21,6.80
2016,09,30,01,22,6.80
2016,09,30,01,23,6.80
2016,09,30,01,24,6.80
2016,09,30,01,25,6.70
2016,09,30,01,26,6.70
2016,09,30,01,27,6.70
2016,09,30,01,28,6.70
2016,09,30,01,29,6.70
2016,09,30,01,30,6.70
2016,09,30,01,31,6.60
2016,09,30,01,32,6.60
2016,09,30,01,33,6.60
2016,09,30,01,34,6.60
2016,09,30,01,35,6.60
2016,09,30,01,36,6.50
2016,09,30,01,37,6.40
2016,09,30,01,38,6.40
2016,09,30,01,39,6.40
2016,09,30,01,40,6.40
2016,09,30,01,41,6.40
2016,09,30,01,42,6.40
2016,09,30,01,43,6.40
2016,09,30,01,44,6.40
2016,09,30,01,45,6.40
2016,09,30,01,46,6.40
2016,09,30,01,47,6.40
2016,09,30,01,48,6.30
2016,09,30,01,49,6.30
2016,09,30,01,50,6.30
2016,09,30,01,51,6.30
2016,09,30,01,52,6.30
2016,09,30,01,53,6.30
2016,09,30,01,54,6.30
2016,09,30,01,55,6.30
2016,09,30,01,56,6.20
2016,09,30,01,57,6.20
2016,09,30,01,58,6.20
2016,09,30,01,59,6.20
2016,09,30,02,00,6.20
2016,09,30,02,01,6.20
2016,09,30,02,02,6.20
2016,09,30,02,03,6.20
2016,09,30,02,04,6.20
2016,09,30,02,05,6.20
2016,09,30,02,06,6.20
2016,09,30,02,07,6.20
2016,09,30,02,08,6.20
2016,09,30,02,09,6.10
2016,09,30,02,10,6.10
2016,09,30,02,11,6.10
2016,09,30,02,12,6.10
2016,09,30,02,13,6.00
2016,09,30,02,14,6.00
2016,09,30,02,15,6.00
2016,09,30,02,16,6.00
2016,09,30,02,17,6.00
2016,09,30,02,18,6.00
2016,09,30,02,19,6.00
2016,09,30,02,20,6.00
2016,09,30,02,21,6.00
2016,09,30,02,22,6.00
2016,09,30,02,23,5.90
2016,09,30,02,24,5.90
2016,09,30,02,25,5.90
2016,09,30,02,26,5.90
2016,09,30,02,27,5.90
2016,09,30,02,28,5.90
2016,09,30,02,29,5.90
2016,09,30,02,30,5.80
2016,09,30,02,31,5.80
2016,09,30,02,32,5.80
2016,09,30,02,33,5.80
2016,09,30,02,34,5.80
2016,09,30,02,35,5.80
2016,09,30,02,36,5.80
2016,09,30,02,37,5.80
2016,09,30,02,38,5.80
2016,09,30,02,39,5.80
2016,09,30,02,40,5.80
2016,09,30,02,41,5.80
2016,09,30,02,42,5.80
2016,09,30,02,43,5.80
2016,09,30,02,44,5.80
2016,09,30,02,45,5.80
2016,09,30,02,46,5.80
2016,09,30,02,47,5.80
2016,09,30,02,48,5.80
2016,09,30,02,49,5.80
2016,09,30,02,50,5.80
2016,09,30,02,51,5.70
2016,09,30,02,52,5.70
2016,09,30,02,53,5.70
2016,09,30,02,54,5.70
2016,09,30,02,55,5.70
2016,09,30,02,56,5.70
2016,09,30,02,57,5.70
2016,09,30,02,58,5.70
2016,09,30,02,59,5.70
2016,09,30,03,00,5.70
2016,09,30,03,01,5.70
2016,09,30,03,02,5.70
2016,09,30,03,03,5.70
2016,09,30,03,04,5.70
2016,09,30,03,05,5.70
2016,09,30,03,06,5.70
2016,09,30,03,07,5.60
2016,09,30,03,08,5.60
2016,09,30,03,09,5.60
2016,09,30,03,10,5.60
2016,09,30,03,11,5.60
2016,09,30,03,12,5.60
2016,09,30,03,13,5.50
2016,09,30,03,14,5.50
2016,09,30,03,15,5.50
2016,09,30,03,16,5.50
2016,09,30,03,17,5.50
2016,09,30,03,18,5.50
2016,09,30,03,19,5.50
2016,09,30,03,20,5.50
2016,09,30,03,21,5.40
2016,09,30,03,22,5.40
2016,09,30,03,23,5.40
2016,09,30,03,24,5.40
2016,09,30,03,25,5.30
2016,09,30,03,26,5.30
2016,09,30,03,27,5.30
2016,09,30,03,28,5.30
2016,09,30,03,29,5.30
2016,09,30,03,30,5.30
2016,09,30,03,31,5.30
2016,09,30,03,32,5.30
2016,09,30,03,33,5.30
2016,09,30,03,34,5.30
2016,09,30,03,35,5.30
2016,09,30,03,36,5.30
2016,09,30,03,37,5.30
2016,09,30,03,38,5.30
2016,09,30,03,39,5.30
2016,09,30,03,40,5.30
2016,09,30,03,41,5.30
2016,09,30,03,42,5.30
2016,09,30,03,43,5.30
2016,09,30,03,44,5.30
2016,09,30,03,45,5.30
2016,09,30,03,46,5.30
2016,09,30,03,47,5.30
2016,09,30,03,48,5.30
2016,09,30,03,49,5.30
2016,09,30,03,50,5.30
2016,09,30,03,51,5.30
2016,09,30,03,52,5.20
2016,09,30,03,53,5.20
2016,09,30,03,54,5.20
2016,09,30,03,55,5.20
2016,09,30,03,56,5.20
2016,09,30,03,57,5.20
2016,09,30,03,58,5.20
2016,09,30,03,59,5.20
2016,09,30,04,00,5.20
2016,09,30,04,01,5.20
2016,09,30,04,02,5.20
2016,09,30,04,03,5.20
2016,09,30,04,04,5.20
2016,09,30,04,05,5.10
2016,09,30,04,06,5.10
2016,09,30,04,07,5.10
2016,09,30,04,08,5.10
2016,09,30,04,09,5.10
2016,09,30,04,10,5.10
2016,09,30,04,11,5.10
2016,09,30,04,12,5.10
2016,09,30,04,13,5.10
2016,09,30,04,14,5.10
2016,09,30,04,15,5.10
2016,09,30,04,16,5.00
2016,09,30,04,17,4.90
2016,09,30,04,18,4.90
2016,09,30,04,19,4.90
2016,09,30,04,20,4.90
2016,09,30,04,21,4.90
2016,09,30,04,22,4.90
2016,09,30,04,23,4.90
2016,09,30,04,24,4.90
2016,09,30,04,25,4.90
2016,09,30,04,26,4.90
2016,09,30,04,27,4.90
2016,09,30,04,28,4.90
2016,09,30,04,29,4.80
2016,09,30,04,30,4.80
2016,09,30,04,31,4.80
2016,09,30,04,32,4.80
2016,09,30,04,33,4.80
2016,09,30,04,34,4.80
2016,09,30,04,35,4.80
2016,09,30,04,36,4.80
2016,09,30,04,37,4.80
2016,09,30,04,38,4.80
2016,09,30,04,39,4.80
2016,09,30,04,40,4.70
2016,09,30,04,41,4.70
2016,09,30,04,42,4.70
2016,09,30,04,43,4.70
2016,09,30,04,44,4.70
2016,09,30,04,45,4.70
2016,09,30,04,46,4.70
2016,09,30,04,47,4.70
2016,09,30,04,48,4.70
2016,09,30,04,49,4.60
2016,09,30,04,50,4.60
2016,09,30,04,51,4.60
2016,09,30,04,52,4.70
2016,09,30,04,53,4.70
2016,09,30,04,54,4.70
2016,09,30,04,55,4.70
2016,09,30,04,56,4.70
2016,09,30,04,57,4.80
2016,09,30,04,58,4.80
2016,09,30,04,59,4.80
2016,09,30,05,00,4.80
2016,09,30,05,01,4.80
2016,09,30,05,02,4.80
2016,09,30,05,03,4.80
2016,09,30,05,04,4.80
2016,09,30,05,05,4.80
2016,09,30,05,06,4.80
2016,09,30,05,07,4.70
2016,09,30,05,08,4.70
2016,09,30,05,09,4.70
2016,09,30,05,10,4.70
2016,09,30,05,11,4.60
2016,09,30,05,12,4.60
2016,09,30,05,13,4.60
2016,09,30,05,14,4.60
2016,09,30,05,15,4.60
2016,09,30,05,16,4.60
2016,09,30,05,17,4.60
2016,09,30,05,18,4.60
2016,09,30,05,19,4.60
2016,09,30,05,20,4.60
2016,09,30,05,21,4.60
2016,09,30,05,22,4.60
2016,09,30,05,23,4.60
2016,09,30,05,24,4.60
2016,09,30,05,25,4.60
2016,09,30,05,26,4.60
2016,09,30,05,27,4.60
2016,09,30,05,28,4.60
2016,09,30,05,29,4.60
2016,09,30,05,30,4.60
2016,09,30,05,31,4.60
2016,09,30,05,32,4.60
2016,09,30,05,33,4.60
2016,09,30,05,34,4.50
2016,09,30,05,35,4.50
2016,09,30,05,36,4.50
2016,09,30,05,37,4.50
2016,09,30,05,38,4.50
2016,09,30,05,39,4.50
2016,09,30,05,40,4.50
2016,09,30,05,41,4.50
2016,09,30,05,42,4.50
2016,09,30,05,43,4.50
2016,09,30,05,44,4.50
2016,09,30,05,45,4.50
2016,09,30,05,46,4.50
2016,09,30,05,47,4.50
2016,09,30,05,48,4.50
2016,09,30,05,49,4.50
2016,09,30,05,50,4.50
2016,09,30,05,51,4.50
2016,09,30,05,52,4.50
2016,09,30,05,53,4.50
2016,09,30,05,54,4.50
2016,09,30,05,55,4.50
2016,09,30,05,56,4.50
2016,09,30,05,57,4.40
2016,09,30,05,58,4.40
2016,09,30,05,59,4.40
2016,09,30,06,00,4.40
2016,09,30,06,01,4.40
2016,09,30,06,02,4.40
2016,09,30,06,03,4.40
2016,09,30,06,04,4.30
2016,09,30,06,05,4.30
2016,09,30,06,06,4.20
2016,09,30,06,07,4.20
2016,09,30,06,08,4.20
2016,09,30,06,09,4.20
2016,09,30,06,10,4.20
2016,09,30,06,11,4.20
2016,09,30,06,12,4.20
2016,09,30,06,13,4.20
2016,09,30,06,14,4.20
2016,09,30,06,15,4.20
2016,09,30,06,16,4.20
2016,09,30,06,17,4.20
2016,09,30,06,18,4.20
2016,09,30,06,19,4.20
2016,09,30,06,20,4.20
2016,09,30,06,21,4.20
2016,09,30,06,22,4.20
2016,09,30,06,23,4.20
2016,09,30,06,24,4.20
2016,09,30,06,25,4.20
2016,09,30,06,26,4.20
2016,09,30,06,27,4.20
2016,09,30,06,28,4.20
2016,09,30,06,29,4.20
2016,09,30,06,30,4.20
2016,09,30,06,31,4.20
2016,09,30,06,32,4.20
2016,09,30,06,33,4.20
2016,09,30,06,34,4.20
2016,09,30,06,35,4.20
2016,09,30,06,36,4.20
2016,09,30,06,37,4.20
2016,09,30,06,38,4.20
2016,09,30,06,39,4.20
2016,09,30,06,40,4.20
2016,09,30,06,41,4.20
2016,09,30,06,42,4.20
2016,09,30,06,43,4.20
2016,09,30,06,44,4.20
2016,09,30,06,45,4.20
2016,09,30,06,46,4.20
2016,09,30,06,47,4.20
2016,09,30,06,48,4.30
2016,09,30,06,49,4.30
2016,09,30,06,50,4.30
2016,09,30,06,51,4.30
2016,09,30,06,52,4.30
2016,09,30,06,53,4.30
2016,09,30,06,54,4.30
2016,09,30,06,55,4.30
2016,09,30,06,56,4.30
2016,09,30,06,57,4.30
2016,09,30,06,58,4.30
2016,09,30,06,59,4.30
2016,09,30,07,00,4.30
2016,09,30,07,01,4.20
2016,09,30,07,02,4.20
2016,09,30,07,03,4.20
2016,09,30,07,04,4.20
2016,09,30,07,05,4.20
2016,09,30,07,06,4.20
2016,09,30,07,07,4.20
2016,09,30,07,08,4.20
2016,09,30,07,09,4.20
2016,09,30,07,10,4.20
2016,09,30,07,11,4.20
2016,09,30,07,12,4.20
2016,09,30,07,13,4.20
2016,09,30,07,14,4.20
2016,09,30,07,15,4.20
2016,09,30,07,16,4.20
2016,09,30,07,17,4.20
2016,09,30,07,18,4.20
2016,09,30,07,19,4.20
2016,09,30,07,20,4.20
2016,09,30,07,21,4.20
2016,09,30,07,22,4.20
2016,09,30,07,23,4.30
2016,09,30,07,24,4.30
2016,09,30,07,25,4.30
2016,09,30,07,26,4.30
2016,09,30,07,27,4.30
2016,09,30,07,28,4.30
2016,09,30,07,29,4.30
2016,09,30,07,30,4.30
2016,09,30,07,31,4.30
2016,09,30,07,32,4.30
2016,09,30,07,33,4.30
2016,09,30,07,34,4.30
2016,09,30,07,35,4.30
2016,09,30,07,36,4.30
2016,09,30,07,37,4.30
2016,09,30,07,38,4.30
2016,09,30,07,39,4.40
2016,09,30,07,40,4.40
2016,09,30,07,41,4.40
2016,09,30,07,42,4.40
2016,09,30,07,43,4.40
2016,09,30,07,44,4.40
2016,09,30,07,45,4.40
2016,09,30,07,46,4.50
2016,09,30,07,47,4.50
2016,09,30,07,48,4.50
2016,09,30,07,49,4.60
2016,09,30,07,50,4.60
2016,09,30,07,51,4.60
2016,09,30,07,52,4.60
2016,09,30,07,53,4.70
2016,09,30,07,54,4.70
2016,09,30,07,55,4.70
2016,09,30,07,56,4.80
2016,09,30,07,57,4.80
2016,09,30,07,58,4.80
2016,09,30,07,59,4.90
2016,09,30,08,00,4.90
2016,09,30,08,01,4.90
2016,09,30,08,02,4.90
2016,09,30,08,03,5.00
2016,09,30,08,04,5.10
2016,09,30,08,05,5.10
2016,09,30,08,06,5.10
2016,09,30,08,07,5.20
2016,09,30,08,08,5.20
2016,09,30,08,09,5.30
2016,09,30,08,10,5.30
2016,09,30,08,11,5.30
2016,09,30,08,12,5.40
2016,09,30,08,13,5.40
2016,09,30,08,14,5.50
2016,09,30,08,15,5.50
2016,09,30,08,16,5.60
2016,09,30,08,17,5.60
2016,09,30,08,18,5.70
2016,09,30,08,19,5.70
2016,09,30,08,20,5.80
2016,09,30,08,21,5.90
2016,09,30,08,22,5.90
2016,09,30,08,23,6.00
2016,09,30,08,24,6.10
2016,09,30,08,25,6.10
2016,09,30,08,26,6.20
2016,09,30,08,27,6.20
2016,09,30,08,28,6.30
2016,09,30,08,29,6.40
2016,09,30,08,30,6.40
2016,09,30,08,31,6.60
2016,09,30,08,32,6.60
2016,09,30,08,33,6.60
2016,09,30,08,34,6.70
2016,09,30,08,35,6.70
2016,09,30,08,36,6.80
2016,09,30,08,37,6.80
2016,09,30,08,38,6.80
2016,09,30,08,39,6.80
2016,09,30,08,40,6.80
2016,09,30,08,41,6.90
2016,09,30,08,42,7.00
2016,09,30,08,43,7.00
2016,09,30,08,44,7.10
2016,09,30,08,45,7.10
2016,09,30,08,46,7.20
2016,09,30,08,47,7.20
2016,09,30,08,48,7.30
2016,09,30,08,49,7.30
2016,09,30,08,50,7.30
2016,09,30,08,51,7.40
2016,09,30,08,52,7.40
2016,09,30,08,53,7.40
2016,09,30,08,54,7.50
2016,09,30,08,55,7.60
2016,09,30,08,56,7.70
2016,09,30,08,57,7.80
2016,09,30,08,58,7.90
2016,09,30,08,59,8.00
2016,09,30,09,00,8.10
2016,09,30,09,01,8.20
2016,09,30,09,02,8.20
2016,09,30,09,03,8.30
2016,09,30,09,04,8.40
2016,09,30,09,05,8.40
2016,09,30,09,06,8.50
2016,09,30,09,07,8.60
2016,09,30,09,08,8.70
2016,09,30,09,09,8.70
2016,09,30,09,10,8.80
2016,09,30,09,11,8.90
2016,09,30,09,12,9.00
2016,09,30,09,13,9.00
2016,09,30,09,14,9.10
2016,09,30,09,15,9.20
2016,09,30,09,16,9.20
2016,09,30,09,17,9.30
2016,09,30,09,18,9.40
2016,09,30,09,19,9.40
2016,09,30,09,20,9.50
2016,09,30,09,21,9.60
2016,09,30,09,22,9.70
2016,09,30,09,23,9.70
2016,09,30,09,24,9.80
2016,09,30,09,25,9.90
2016,09,30,09,26,9.90
2016,09,30,09,27,10.00
2016,09,30,09,28,10.10
2016,09,30,09,29,10.20
2016,09,30,09,30,10.30
2016,09,30,09,31,10.30
2016,09,30,09,32,10.40
2016,09,30,09,33,10.40
2016,09,30,09,34,10.40
2016,09,30,09,35,10.60
2016,09,30,09,36,10.60
2016,09,30,09,37,10.70
2016,09,30,09,38,10.80
2016,09,30,09,39,10.90
2016,09,30,09,40,11.00
2016,09,30,09,41,11.10
2016,09,30,09,42,11.10
2016,09,30,09,43,11.10
2016,09,30,09,44,11.20
2016,09,30,09,45,11.20
2016,09,30,09,46,11.30
2016,09,30,09,47,11.30
2016,09,30,09,48,11.30
2016,09,30,09,49,11.30
2016,09,30,09,50,11.30
2016,09,30,09,51,11.30
2016,09,30,09,52,11.40
2016,09,30,09,53,11.40
2016,09,30,09,54,11.50
2016,09,30,09,55,11.60
2016,09,30,09,56,11.60
2016,09,30,09,57,11.70
2016,09,30,09,58,11.80
2016,09,30,09,59,11.80
2016,09,30,10,00,11.80
2016,09,30,10,01,11.80
2016,09,30,10,02,11.90
2016,09,30,10,03,11.90
2016,09,30,10,04,11.90
2016,09,30,10,05,12.00
2016,09,30,10,06,12.00
2016,09,30,10,07,12.10
2016,09,30,10,08,12.20
2016,09,30,10,09,12.20
2016,09,30,10,10,12.10
2016,09,30,10,11,12.00
2016,09,30,10,12,12.00
2016,09,30,10,13,12.00
2016,09,30,10,14,12.00
2016,09,30,10,15,12.10
2016,09,30,10,16,12.10
2016,09,30,10,17,12.10
2016,09,30,10,18,12.20
2016,09,30,10,19,12.20
2016,09,30,10,20,12.30
2016,09,30,10,21,12.30
2016,09,30,10,22,12.40
2016,09,30,10,23,12.40
2016,09,30,10,24,12.40
2016,09,30,10,25,12.40
2016,09,30,10,26,12.30
2016,09,30,10,27,12.40
2016,09,30,10,28,12.50
2016,09,30,10,29,12.50
2016,09,30,10,30,12.60
2016,09,30,10,31,12.70
2016,09,30,10,32,12.80
2016,09,30,10,33,12.80
2016,09,30,10,34,12.80
2016,09,30,10,35,12.90
2016,09,30,10,36,12.90
2016,09,30,10,37,12.90
2016,09,30,10,38,13.00
2016,09,30,10,39,13.00
2016,09,30,10,40,13.00
2016,09,30,10,41,13.10
2016,09,30,10,42,13.10
2016,09,30,10,43,13.10
2016,09,30,10,44,13.20
2016,09,30,10,45,13.20
2016,09,30,10,46,13.30
2016,09,30,10,47,13.30
2016,09,30,10,48,13.30
2016,09,30,10,49,13.30
2016,09,30,10,50,13.30
2016,09,30,10,51,13.30
2016,09,30,10,52,13.30
2016,09,30,10,53,13.30
2016,09,30,10,54,13.30
2016,09,30,10,55,13.30
2016,09,30,10,56,13.30
2016,09,30,10,57,13.30
2016,09,30,10,58,13.30
2016,09,30,10,59,13.30
2016,09,30,11,00,13.30
2016,09,30,11,01,13.20
2016,09,30,11,02,13.10
2016,09,30,11,03,13.00
2016,09,30,11,04,13.00
2016,09,30,11,05,12.90
2016,09,30,11,06,13.00
2016,09,30,11,07,13.00
2016,09,30,11,08,13.00
2016,09,30,11,09,13.00
2016,09,30,11,10,13.00
2016,09,30,11,11,12.90
2016,09,30,11,12,12.80
2016,09,30,11,13,12.90
2016,09,30,11,14,12.90
2016,09,30,11,15,12.90
2016,09,30,11,16,12.90
2016,09,30,11,17,12.90
2016,09,30,11,18,12.90
2016,09,30,11,19,12.90
2016,09,30,11,20,12.90
2016,09,30,11,21,12.90
2016,09,30,11,22,12.90
2016,09,30,11,23,13.00
2016,09,30,11,24,13.00
2016,09,30,11,25,12.90
2016,09,30,11,26,12.80
2016,09,30,11,27,12.80
2016,09,30,11,28,12.80
2016,09,30,11,29,12.70
2016,09,30,11,30,12.70
2016,09,30,11,31,12.60
2016,09,30,11,32,12.60
2016,09,30,11,33,12.50
2016,09,30,11,34,12.50
2016,09,30,11,35,12.40
2016,09,30,11,36,12.30
2016,09,30,11,37,12.30
2016,09,30,11,38,12.30
2016,09,30,11,39,12.20
2016,09,30,11,40,12.20
2016,09,30,11,41,12.20
2016,09,30,11,42,12.20
2016,09,30,11,43,12.30
2016,09,30,11,44,12.30
2016,09,30,11,45,12.40
2016,09,30,11,46,12.40
2016,09,30,11,47,12.50
2016,09,30,11,48,12.50
2016,09,30,11,49,12.60
2016,09,30,11,50,12.60
2016,09,30,11,51,12.60
2016,09,30,11,52,12.50
2016,09,30,11,53,12.50
2016,09,30,11,54,12.60
2016,09,30,11,55,12.60
2016,09,30,11,56,12.50
2016,09,30,11,57,12.50
2016,09,30,11,58,12.50
2016,09,30,11,59,12.40
2016,09,30,12,00,12.40
2016,09,30,12,01,12.40
2016,09,30,12,02,12.50
2016,09,30,12,03,12.50
2016,09,30,12,04,12.50
2016,09,30,12,05,12.50
2016,09,30,12,06,12.60
2016,09,30,12,07,12.60
2016,09,30,12,08,12.70
2016,09,30,12,09,12.70
2016,09,30,12,10,12.70
2016,09,30,12,11,12.70
2016,09,30,12,12,12.70
2016,09,30,12,13,12.80
2016,09,30,12,14,12.70
2016,09,30,12,15,12.80
2016,09,30,12,16,12.80
2016,09,30,12,17,12.80
2016,09,30,12,18,12.80
2016,09,30,12,19,12.80
2016,09,30,12,20,12.80
2016,09,30,12,21,12.90
2016,09,30,12,22,12.90
2016,09,30,12,23,12.90
2016,09,30,12,24,13.00
2016,09,30,12,25,13.10
2016,09,30,12,26,13.10
2016,09,30,12,27,13.00
2016,09,30,12,28,13.00
2016,09,30,12,29,13.10
2016,09,30,12,30,13.20
2016,09,30,12,31,13.20
2016,09,30,12,32,13.10
2016,09,30,12,33,13.10
2016,09,30,12,34,13.00
2016,09,30,12,35,13.10
2016,09,30,12,36,13.10
2016,09,30,12,37,13.10
2016,09,30,12,38,13.00
2016,09,30,12,39,13.00
2016,09,30,12,40,13.10
2016,09,30,12,41,13.00
2016,09,30,12,42,13.00
2016,09,30,12,43,13.00
2016,09,30,12,44,13.00
2016,09,30,12,45,13.00
2016,09,30,12,46,13.00
2016,09,30,12,47,13.00
2016,09,30,12,48,13.00
2016,09,30,12,49,13.10
2016,09,30,12,50,13.20
2016,09,30,12,51,13.20
2016,09,30,12,52,13.20
2016,09,30,12,53,13.20
2016,09,30,12,54,13.20
2016,09,30,12,55,13.30
2016,09,30,12,56,13.30
2016,09,30,12,57,13.30
2016,09,30,12,58,13.40
2016,09,30,12,59,13.50
2016,09,30,13,00,13.60
2016,09,30,13,01,13.60
2016,09,30,13,02,13.70
2016,09,30,13,03,13.70
2016,09,30,13,04,13.70
2016,09,30,13,05,13.70
2016,09,30,13,06,13.70
2016,09,30,13,07,13.70
2016,09,30,13,08,13.70
2016,09,30,13,09,13.70
2016,09,30,13,10,13.70
2016,09,30,13,11,13.70
2016,09,30,13,12,13.60
2016,09,30,13,13,13.50
2016,09,30,13,14,13.50
2016,09,30,13,15,13.60
2016,09,30,13,16,13.50
2016,09,30,13,17,13.60
2016,09,30,13,18,13.60
2016,09,30,13,19,13.50
2016,09,30,13,20,13.40
2016,09,30,13,21,13.50
2016,09,30,13,22,13.50
2016,09,30,13,23,13.50
2016,09,30,13,24,13.60
2016,09,30,13,25,13.60
2016,09,30,13,26,13.50
2016,09,30,13,27,13.50
2016,09,30,13,28,13.50
2016,09,30,13,29,13.50
2016,09,30,13,30,13.50
2016,09,30,13,31,13.60
2016,09,30,13,32,13.50
2016,09,30,13,33,13.50
2016,09,30,13,34,13.60
2016,09,30,13,35,13.60
2016,09,30,13,36,13.60
2016,09,30,13,37,13.60
2016,09,30,13,38,13.60
2016,09,30,13,39,13.60
2016,09,30,13,40,13.50
2016,09,30,13,41,13.60
2016,09,30,13,42,13.60
2016,09,30,13,43,13.60
2016,09,30,13,44,13.50
2016,09,30,13,45,13.50
2016,09,30,13,46,13.50
2016,09,30,13,47,13.50
2016,09,30,13,48,13.60
2016,09,30,13,49,13.60
2016,09,30,13,50,13.60
2016,09,30,13,51,13.60
2016,09,30,13,52,13.50
2016,09,30,13,53,13.50
2016,09,30,13,54,13.50
2016,09,30,13,55,13.50
2016,09,30,13,56,13.40
2016,09,30,13,57,13.50
2016,09,30,13,58,13.50
2016,09,30,13,59,13.40
2016,09,30,14,00,13.40
2016,09,30,14,01,13.40
2016,09,30,14,02,13.30
2016,09,30,14,03,13.30
2016,09,30,14,04,13.40
2016,09,30,14,05,13.40
2016,09,30,14,06,13.50
2016,09,30,14,07,13.50
2016,09,30,14,08,13.60
2016,09,30,14,09,13.60
2016,09,30,14,10,13.70
2016,09,30,14,11,13.60
2016,09,30,14,12,13.60
2016,09,30,14,13,13.60
2016,09,30,14,14,13.70
2016,09,30,14,15,13.70
2016,09,30,14,16,13.70
2016,09,30,14,17,13.70
2016,09,30,14,18,13.70
2016,09,30,14,19,13.70
2016,09,30,14,20,13.70
2016,09,30,14,21,13.70
2016,09,30,14,22,13.70
2016,09,30,14,23,13.70
2016,09,30,14,24,13.70
2016,09,30,14,25,13.70
2016,09,30,14,26,13.70
2016,09,30,14,27,13.80
2016,09,30,14,28,13.80
2016,09,30,14,29,13.80
2016,09,30,14,30,13.80
2016,09,30,14,31,13.70
2016,09,30,14,32,13.80
2016,09,30,14,33,13.70
2016,09,30,14,34,13.70
2016,09,30,14,35,13.70
2016,09,30,14,36,13.60
2016,09,30,14,37,13.60
2016,09,30,14,38,13.60
2016,09,30,14,39,13.60
2016,09,30,14,40,13.60
2016,09,30,14,41,13.60
2016,09,30,14,42,13.60
2016,09,30,14,43,13.60
2016,09,30,14,44,13.60
2016,09,30,14,45,13.60
2016,09,30,14,46,13.60
2016,09,30,14,47,13.60
2016,09,30,14,48,13.60
2016,09,30,14,49,13.50
2016,09,30,14,50,13.50
2016,09,30,14,51,13.50
2016,09,30,14,52,13.40
2016,09,30,14,53,13.40
2016,09,30,14,54,13.30
2016,09,30,14,55,13.30
2016,09,30,14,56,13.20
2016,09,30,14,57,13.20
2016,09,30,14,58,13.20
2016,09,30,14,59,13.30
2016,09,30,15,00,13.30
2016,09,30,15,01,13.40
2016,09,30,15,02,13.40
2016,09,30,15,03,13.40
2016,09,30,15,04,13.50
2016,09,30,15,05,13.50
2016,09,30,15,06,13.60
2016,09,30,15,07,13.60
2016,09,30,15,08,13.70
2016,09,30,15,09,13.70
2016,09,30,15,10,13.70
2016,09,30,15,11,13.70
2016,09,30,15,12,13.70
2016,09,30,15,13,13.70
2016,09,30,15,14,13.70
2016,09,30,15,15,13.70
2016,09,30,15,16,13.70
2016,09,30,15,17,13.70
2016,09,30,15,18,13.70
2016,09,30,15,19,13.70
2016,09,30,15,20,13.70
2016,09,30,15,21,13.80
2016,09,30,15,22,13.80
2016,09,30,15,23,13.80
2016,09,30,15,24,13.80
2016,09,30,15,25,13.80
2016,09,30,15,26,13.90
2016,09,30,15,27,13.90
2016,09,30,15,28,13.90
2016,09,30,15,29,14.00
2016,09,30,15,30,14.00
2016,09,30,15,31,14.00
2016,09,30,15,32,14.00
2016,09,30,15,33,14.10
2016,09,30,15,34,14.20
2016,09,30,15,35,14.20
2016,09,30,15,36,14.40
2016,09,30,15,37,14.40
2016,09,30,15,38,14.40
2016,09,30,15,39,14.40
2016,09,30,15,40,14.40
2016,09,30,15,41,14.40
2016,09,30,15,42,14.40
2016,09,30,15,43,14.30
2016,09,30,15,44,14.20
2016,09,30,15,45,14.10
2016,09,30,15,46,13.90
2016,09,30,15,47,13.90
2016,09,30,15,48,13.80
2016,09,30,15,49,13.90
2016,09,30,15,50,13.80
2016,09,30,15,51,13.80
2016,09,30,15,52,13.80
2016,09,30,15,53,13.80
2016,09,30,15,54,13.70
2016,09,30,15,55,13.70
2016,09,30,15,56,13.80
2016,09,30,15,57,13.80
2016,09,30,15,58,13.90
2016,09,30,15,59,13.90
2016,09,30,16,00,13.90
2016,09,30,16,01,13.90
2016,09,30,16,02,13.80
2016,09,30,16,03,13.80
2016,09,30,16,04,13.70
2016,09,30,16,05,13.70
2016,09,30,16,06,13.60
2016,09,30,16,07,13.60
2016,09,30,16,08,13.60
2016,09,30,16,09,13.50
2016,09,30,16,10,13.50
2016,09,30,16,11,13.40
2016,09,30,16,12,13.50
2016,09,30,16,13,13.60
2016,09,30,16,14,13.60
2016,09,30,16,15,13.70
2016,09,30,16,16,13.70
2016,09,30,16,17,13.70
2016,09,30,16,18,13.70
2016,09,30,16,19,13.70
2016,09,30,16,20,13.70
2016,09,30,16,21,13.70
2016,09,30,16,22,13.70
2016,09,30,16,23,13.70
2016,09,30,16,24,13.80
2016,09,30,16,25,13.80
2016,09,30,16,26,13.70
2016,09,30,16,27,13.70
2016,09,30,16,28,13.70
2016,09,30,16,29,13.70
2016,09,30,16,30,13.70
2016,09,30,16,31,13.70
2016,09,30,16,32,13.70
2016,09,30,16,33,13.70
2016,09,30,16,34,13.70
2016,09,30,16,35,13.70
2016,09,30,16,36,13.70
2016,09,30,16,37,13.80
2016,09,30,16,38,13.80
2016,09,30,16,39,13.80
2016,09,30,16,40,13.80
2016,09,30,16,41,13.90
2016,09,30,16,42,13.90
2016,09,30,16,43,13.90
2016,09,30,16,44,13.90
2016,09,30,16,45,14.00
2016,09,30,16,46,14.10
2016,09,30,16,47,14.10
2016,09,30,16,48,14.10
2016,09,30,16,49,14.10
2016,09,30,16,50,14.20
2016,09,30,16,51,14.20
2016,09,30,16,52,14.20
2016,09,30,16,53,14.10
2016,09,30,16,54,14.10
2016,09,30,16,55,14.20
2016,09,30,16,56,14.20
2016,09,30,16,57,14.20
2016,09,30,16,58,14.20
2016,09,30,16,59,14.20
2016,09,30,17,00,14.20
2016,09,30,17,01,14.30
2016,09,30,17,02,14.30
2016,09,30,17,03,14.40
2016,09,30,17,04,14.40
2016,09,30,17,05,14.40
2016,09,30,17,06,14.40
2016,09,30,17,07,14.40
2016,09,30,17,08,14.40
2016,09,30,17,09,14.40
2016,09,30,17,10,14.40
2016,09,30,17,11,14.50
2016,09,30,17,12,14.50
2016,09,30,17,13,14.50
2016,09,30,17,14,14.60
2016,09,30,17,15,14.50
2016,09,30,17,16,14.50
2016,09,30,17,17,14.50
2016,09,30,17,18,14.50
2016,09,30,17,19,14.50
2016,09,30,17,20,14.50
2016,09,30,17,21,14.50
2016,09,30,17,22,14.50
2016,09,30,17,23,14.40
2016,09,30,17,24,14.30
2016,09,30,17,25,14.20
2016,09,30,17,26,14.20
2016,09,30,17,27,14.20
2016,09,30,17,28,14.20
2016,09,30,17,29,14.20
2016,09,30,17,30,14.20
2016,09,30,17,31,14.20
2016,09,30,17,32,14.30
2016,09,30,17,33,14.30
2016,09,30,17,34,14.30
2016,09,30,17,35,14.30
2016,09,30,17,36,14.30
2016,09,30,17,37,14.30
2016,09,30,17,38,14.30
2016,09,30,17,39,14.30
2016,09,30,17,40,14.30
2016,09,30,17,41,14.30
2016,09,30,17,42,14.20
2016,09,30,17,43,14.20
2016,09,30,17,44,14.20